Tracking 33407 objects as of 5-Mar-2026
HD Live streaming from Space Station
objects crossing your sky now

STARLINK-6231

Track STARLINK-6231 now!
10-day predictions
STARLINK-6231 is classified as:


NORAD ID: 56779
Int'l Code: 2023-078N
Perigee: 577.3 km
Apogee: 581.1 km
Inclination: 70.0 °
Period: 96.1 minutes
Semi major axis: 6950 km
RCS: Unknown
Launch date: May 31, 2023
Source: United States (US)
Launch site: AIR FORCE WESTERN TEST RANGE (AFWTR)
Your satellite tracking list
Your tracking list is empty




NASA's NSSDC Master Catalog

Two Line Element Set (TLE):
1 56779U 23078N   26064.15168311  .00000520  00000-0  51347-4 0  9999
2 56779  70.0009 335.9044 0002669 268.3847  91.7006 14.98328942152484
Source of the keplerian elements: AFSPC